Location: Arcizac
(43.0933°N, 0.0112°E)
Time: 13:10:48
(UTC+00:00)

Cosmos 2344 - Pass Details

Date: 14 December 2019
Orbit: 1256 x 2986 km, 63.3° (Epoch: 27 January)

Event Time Altitude Azimuth Distance (km) Brightness Sun altitude
Rises 18:46:30 0° 323° (NW) 4,640 6.9 -24.8°
Reaches altitude 10° 18:49:12 10° 326° (NNW) 3,804 6.3 -25.3°
Maximum altitude 18:58:51 66° 49° (NE) 2,110 4.4 -27.1°
Enters shadow 19:05:33 33° 121° (ESE) 3,302 5.3 -28.3°
